COSMOS 2491 DEB *

Satellite information

Favourite Embed

Satellite Type and Status

DEBRISIN ORBIT

Key statistics

Satellite COSMOS 2491 DEB * at a glance.

Uptime

4372

Days in orbit

Revolutions

≈ 14.4

Per day

Orbit

LEO

Low Earth Orbit

Inclination

81.2

Latest

Satellite identification and parameters

Extended collection of information and parameters for COSMOS 2491 DEB *.

Object identification

Identified? True

Debris? True

Object name: COSMOS 2491 DEB *

International designator: 2013-076AA

Object number (NORAD): 45128

Object ID (CCSDS): 45128

Country: COMMONWEALTH OF INDEPENDENT STATES (CIS)

Current information (Y/N): Y

RCS size: SMALL

Orbital parameters

Period: 99.923 minutes

Inclination: 81.2106 deg

SMA: 7132.952 km

Apoapsis: 769.513 km

Periapsis: 740.12 km

RAAN: 192.9192 deg

Eccentricy: 0.0020604

Argument of periapsis: 68.5537 deg

Mean anomaly: 291.7845 deg

Mean motion: 14.41115685 rev/day

Mean motion (dot): 0.00011273 rev/day2

B* drag term: 0.0034838 1/REarth

Two-line elements (TLE)

Creation date: Dec. 11, 2025, 7:36 a.m.

Reference frame: TEME

Reference center: EARTH

Epoch: Dec. 10, 2025, 8:50 p.m. UTC

TLE line 0: 0 COSMOS 2491 DEB *

TLE line 1: 1 45128U 13076AA 25344.86828008 .00011273 00000-0 34838-2 0 9997

TLE line 2: 2 45128 81.2106 192.9192 0020604 68.5537 291.7845 14.41115685 34907

Live tracking on map

Real-time ground track for satellite COSMOS 2491 DEB *.

In-orbit conjunctions

A list of the most updated potential collisions computed for object COSMOS 2491 DEB *.

Target Orbit TCA Probability of collision Miss distance Type
REX LEO 2025-09-13 08:59:43 0.0001033509 965.0 (m) PAYLOAD
COSMOS 990 LEO 2025-07-13 09:53:18 0.0003214254 630.0 (m) PAYLOAD
DELTA 1 DEB SSO 2025-06-15 20:49:41 0.0002432013 83.0 (m) DEBRIS
SL-8 R/B LEO 2024-08-18 22:05:07 0.0002786016 797.0 (m) ROCKET BODY

Associated space launch

COSMOS 2491 DEB * was lifted into orbit during the mission ‘Rokot / Briz-KM | 3 x Strela-3M (Kosmos-2488, Kosmos-2489, Kosmos-2490) & Kosmos-2491’, on board a Rokot/Briz-KM space rocket.

The launch took place on Dec. 25, 2013, 12:31 a.m. from 133/3 (133L).

For more information about the launch, click the button.

Launch to space Rokot / Briz-KM | 3 x Strela-3M (Kosmos-2488, Kosmos-2489, Kosmos-2490) & Kosmos-2491
Rokot / Briz-KM | 3 x Strela-3M (Kosmos-2488, Kosmos-2489, Kosmos-2490) & Kosmos-2491

Agency: N/A

Status: Launch Successful

Launch date: Dec. 25, 2013, 12:31 a.m. UTC

Rocket: Rokot/Briz-KM

Launch pad: 133/3 (133L)

Location: Plesetsk Cosmodrome, Russian Federation

...

Latest news about this satellite

There are no fresh news available about this satellite. Check back as we update our databases every day.


Newsletter sign-up

Weekly statistics, charts and insights to help you stay on top of the space industry.